OpenBCM V1.13 (Linux)

Packet Radio Mailbox

DB0FHN

[JN59NK Nuernberg]

 Login: GUEST





  
LU1HVK > KEP      10.01.20 18:06l 242 Lines 12024 Bytes #999 (0) @ WW
BID : 38778_LU1HVK
Read: DJ6UX GUEST
Subj: TLE 08 11
Path: DB0FHN<DB0BLO<DB0ERF<DB0RES<IR2UBX<IW0QNL<JH4XSY<N3HYM<XE1FH<LU3DVN<
      LU1HVK
Sent: 200110/1600Z 38778@LU1HVK.2594.CBA.ARG.SA LinBPQ6.0.19

                         _    _   _ _ _   ___     ___  __
                        | |  | | | / | | | \ \   / / |/ /
                        | |  | | | | | |_| |\ \ / /| ' /
                        | |__| |_| | |  _  | \ V / | . \
                        |_____\___/|_|_| |_|  \_/  |_|\_\

     BBS/NODO - CORDOBA (LEONES-FF87UH) - LU1HVK-4 NODO - LU1HVK-3 APRS

+----------------------------------------------------------------------------+
OSCAR 7
1  7530U 74089B   19311.52498181 -.00000030 +00000-0 +91805-4 0  9997
2  7530 101.7655 277.8288 0012517 073.2325 040.4580 12.53640632058053
OSCAR 11 (UoSAT 2)
1 14781U 84021B   19311.51727349  .00000081  00000-0  16062-4 0  9997
2 14781  97.6029 329.4641 0007794 204.7140 155.3702 14.83118124919780
OSCAR 19 (LUSAT)
1 20442U 90005G   19311.62722323 +.00000010 +00000-0 +19914-4 0  9997
2 20442 098.6630 253.4726 0012900 090.8909 269.3753 14.32937225556641
EYESAT A
1 22825U 93061C   19311.53178733 +.00000001 +00000-0 +18271-4 0  9994
2 22825 098.9150 303.4847 0007614 311.0638 048.9884 14.30070383361956
ITAMSAT
1 22826U 93061D   19311.50038450 +.00000004 +00000-0 +19623-4 0  9998
2 22826 098.9090 303.4263 0008016 298.2138 061.8234 14.30404710362173
RADIO ROSTO
1 23439U 94085A   19311.42076594 -.00000039 +00000-0 +83545-4 0  9991
2 23439 064.8160 246.9267 0145361 085.5007 276.2506 11.27568548023874
JAS 2
1 24278U 96046B   19311.59616717 -.00000007 +00000-0 +30793-4 0  9999
2 24278 098.5592 085.9019 0349613 232.0480 124.8592 13.53094606146740
TECHSAT 1B
1 25397U 98043D   19311.44609132 -.00000015 +00000-0 +12567-4 0  9996
2 25397 098.7018 249.9446 0001540 031.3422 328.7848 14.23673747107826
ISS (ZARYA)
1 25544U 98067A   19311.65034873  .00000782  00000-0  21538-4 0  9991
2 25544  51.6451   9.9487 0005806 239.8014 220.3094 15.50259288197515
PCSAT
1 26931U 01043C   19311.56590312 -.00000011 +00000-0 +27675-4 0  9999
2 26931 067.0524 357.5739 0007478 266.3077 093.7169 14.30557750945193
SAUDISAT 1C
1 27607U 02058C   19311.53344879 -.00000012  00000-0  19187-4 0  9999
2 27607  64.5553 335.9300 0073227 228.8529 130.6241 14.75586564907961
CUTE-1
1 27844U 03031E   19311.48613585 +.00000059 +00000-0 +46080-4 0  9993
2 27844 098.6849 317.5845 0009554 347.0754 013.0178 14.22203776848405
CUBESAT XI 4
1 27848U 03031J   19311.51876792 +.00000047 +00000-0 +41014-4 0  9991
2 27848 098.6924 318.1447 0009667 359.1338 000.9821 14.21795624848266
MOZHAYETS 4
1 27939U 03042A   19311.73382864  .00000115  00000-0  29214-4 0  9994
2 27939  98.0606  84.9545 0012396 344.2490  15.8333 14.66815443861362
CUBESAT XI 5
1 28895U 05043F   19311.63211576  .00000116  00000-0  31097-4 0  9992
2 28895  97.9797  89.6744 0015515 262.9433  97.0005 14.63707751748243
CUTE-1.7+APD II
1 32785U 08021C   19311.60950670  .00000202  00000-0  27376-4 0  9997
2 32785  97.5576 304.6896 0013824 146.8651 213.3435 14.88369270624798
DELFI C3
1 32789U 08021G   19311.43871305 +.00000807 +00000-0 +57489-4 0  9998
2 32789 097.4488 356.7243 0012124 008.1061 352.0360 15.07233975628217
SEEDS
1 32791U 08021J   19311.52245802  .00000216  00000-0  27168-4 0  9993
2 32791  97.5323 310.7007 0014647 122.0448 238.2195 14.90904098625247
YUBELEINY
1 32953U 08025A   19311.69859141  .00000020  00000-0  75656-4 0  9990
2 32953  82.5055  56.4414 0019787 177.0585 183.0618 12.43092046519955
PRISM (HITOMI)
1 33493U 09002B   19311.52674959  .00000423  00000-0  42482-4 0  9998
2 33493  98.1243 237.8732 0016179  74.3707 285.9297 14.96789532586369
KKS-1 (KISEKI)
1 33499U 09002H   19311.61409711 +.00000080 +00000-0 +19807-4 0  9990
2 33499 098.3377 154.7838 0010277 111.8303 248.4000 14.75476567579727
SWISSCUBE
1 35932U 09051B   19311.40847567  .00000137  00000-0  41878-4 0  9996
2 35932  98.5994 121.6525 0008697  91.2551 268.9642 14.56326428537400
BEESAT
1 35933U 09051C   19311.47171124 +.00000123 +00000-0 +38710-4 0  9999
2 35933 098.6009 123.5331 0006891 102.2128 257.9841 14.56410362537446
ITUPSAT 1
1 35935U 09051E   19311.47389929  .00000107  00000-0  35797-4 0  9999
2 35935  98.6119 123.7616 0009208 100.6545 259.5688 14.55564685537262
XIWANG-1 (HOPE-1)
1 36122U 09072B   19311.71237893 -.00000046 +00000-0 -11137-4 0  9996
2 36122 100.0795 307.4487 0007637 022.7162 337.4286 13.16351765475562
TISAT 1
1 36799U 10035E   19311.40502354 +.00000336 +00000-0 +39918-4 0  9997
2 36799 098.1727 108.4275 0011868 347.2056 012.8858 14.91196095505689
JUGNU
1 37839U 11058B   19311.09404211 +.00000296 +00000-0 +16198-4 0  9997
2 37839 019.9599 197.2901 0018993 086.2617 063.6551 14.12663568417160
SRMSAT
1 37841U 11058D   19311.20121675 +.00000306 +00000-0 +23221-4 0  9990
2 37841 019.9718 256.3457 0011656 311.5732 180.2433 14.10642582416604
M-CUBED/EXP-1 PRIME
1 37855U 11061F   19311.61841186 +.00001790 +00000-0 +96326-4 0  9994
2 37855 101.7201 280.1081 0172785 016.0008 344.6568 15.05742141437669
HORYU 2
1 38340U 12025D   19311.41976116 +.00000171 +00000-0 +32885-4 0  9997
2 38340 098.3140 354.1509 0012133 038.1283 322.0782 14.75770498391657
STRAND 1
1 39090U 13009E   19311.53077097 +.00000038 +00000-0 +28642-4 0  9994
2 39090 098.4733 155.0230 0008306 222.9857 137.0680 14.35104048350716
SOMP
1 39134U 13015E   19311.38254890 +.00001424 +00000-0 +73231-4 0  9995
2 39134 064.8627 281.2893 0037401 280.3192 079.3719 15.20473259361754
BEESAT 3
1 39135U 13015F   19311.42642214  .00001018  00000-0  59317-4 0  9990
2 39135  64.8668 301.4604 0039229 285.7894  73.8908 15.17710137361757
BEESAT 2
1 39136U 13015G   19311.45163142 +.00001033 +00000-0 +61360-4 0  9990
2 39136 064.8679 305.6151 0030018 290.5926 069.1980 15.17124972361282
CUBEBUG 1
1 39153U 13018D   19311.27945200  .00000199  00000-0  32852-4 0  9991
2 39153  97.9817  48.6344 0018305  99.4712 260.8570 14.80619857352762
ZACUBE
1 39417U 13066B   19311.50713433  .00000196  00000-0  31140-4 0  9990
2 39417  97.5623 317.0370 0057493 289.5383  69.9627 14.81173829322038
TRITON 1
1 39427U 13066M   19311.58433921  .00000212  00000-0  41370-4 0  9995
2 39427  97.6950 280.3308 0115144  71.4163 289.9508 14.67901228319155
GOMX 1
1 39430U 13066Q   19311.69623539  .00000139  00000-0  33953-4 0  9993
2 39430  97.7631 259.0146 0151236 166.0235 194.5231 14.59304608317312
HUMSAT D
1 39433U 13066T   19311.56959752 +.00000164 +00000-0 +21253-4 0  9999
2 39433 097.5377 353.1593 0030719 184.3521 175.7437 14.92292887323054
CUBEBUG 2
1 39440U 13066AA  19311.51596610  .00000245  00000-0  41034-4 0  9991
2 39440  97.6118 301.6470 0079855 345.3063  14.5826 14.75911819320897
FUNCUBE 1
1 39444U 13066AE  19311.49643895  .00000247  00000-0  36839-4 0  9999
2 39444  97.5590 319.1036 0056564 282.6309  76.8584 14.82004767320934
UWE-3
1 39446U 13066AG  19311.48018332 +.00000226 +00000-0 +36770-4 0  9993
2 39446 097.5864 308.7671 0069005 318.3218 041.2747 14.78446490319628
SPROUT
1 39770U 14029E   19311.50911926  .00000535  00000-0  65093-4 0  9990
2 39770  97.8898  53.9363 0008814 347.8564  12.2430 14.87490604295915
UNISAT 6
1 40012U 14033C   19311.62084856 +.00000183 +00000-0 +34592-4 0  9991
2 40012 097.7357 171.9675 0058462 001.2695 358.8651 14.74028809289593
DUCHIFAT 1
1 40021U 14033M   19311.37949950  .00000296  00000-0  35977-4 0  9991
2 40021  97.9274 236.4561 0011822 307.8276  52.1871 14.90728327292652
QB50P1
1 40025U 14033R   19311.42840397 +.00000232 +00000-0 +30627-4 0  9993
2 40025 097.9059 230.8717 0011516 318.7077 041.3268 14.89014665291906
CHUBUSAT 1
1 40300U 14070C   19311.66754856  .00000512  00000-0  25201-4 0  9993
2 40300  97.3144  22.1737 0018555 278.5976 234.7624 15.22237581277614
NUDT-PHONESAT
1 40900U 15049B   19311.69634075 +.00001799 +00000-0 +78816-4 0  9997
2 40900 097.4370 319.6709 0014100 051.7169 059.4835 15.23239501229272
ZDPS 2A
1 40901U 15049C   19311.75205916  .00000789  00000-0  42144-4 0  9996
2 40901  97.4624 315.5515 0015168  70.8016  39.9192 15.17914677228784
ZDPS 2B
1 40902U 15049D   19311.72692742  .00001052  00000-0  55262-4 0  9990
2 40902  97.4582 312.9080 0015086  68.5571  46.7109 15.17795824228757
XW-2A
1 40903U 15049E   19311.69717446  .00001652  00000-0  40315-4 0  9995
2 40903  97.3215 355.1646 0013374 359.4968  94.8006 15.42286603232132
KAITUO 1A
1 40904U 15049F   19311.76722663  .00000436  00000-0  26459-4 0  9993
2 40904  97.4719 311.3863 0016324  76.5233  28.8893 15.15490382228517
OBJECT G
1 40905U 15049G   19311.75079388  .00000239  00000-0  16560-4 0  9995
2 40905  97.4771 308.7759 0017327  72.5895  31.8474 15.14381723228374
XW-2C
1 40906U 15049H   19311.73934491  .00000679  00000-0  38898-4 0  9995
2 40906  97.4732 311.5095 0016444  69.3146  40.7572 15.15812911228512
XW-2D
1 40907U 15049J   19311.69943891  .00000349  00000-0  21575-4 0  9993
2 40907  97.4702 311.1524 0015748  66.3768  46.4959 15.16010461228520
LILACSAT 2
1 40908U 15049K   19311.77941177 +.00000038 +00000-0 +56814-5 0  9998
2 40908 097.4844 309.8912 0017555 072.9373 051.6766 15.13882702228308
XW-2F
1 40910U 15049M   19311.72198012  .00000876  00000-0  46933-4 0  9998
2 40910  97.4663 313.3951 0016295  59.2591  50.6738 15.17516249228552
XW-2B
1 40911U 15049N   19311.73823522  .00000778  00000-0  43923-4 0  9998
2 40911  97.4729 311.8642 0015637  67.7488  42.5002 15.15942524228421
KAITUO 1B
1 40912U 15049P   19311.73359593 +.00001035 +00000-0 +51318-4 0  9995
2 40912 097.4513 317.2721 0016154 041.3337 068.4733 15.19856528228887
TIANWANG 1C (TW-1C)
1 40926U 15051B   19311.68770515  .00012349  00000-0  16188-3 0  9993
2 40926  97.1189 357.7956 0006992 187.8706 269.7076 15.58678314232252
TIANWANG 1B (TW-1B)
1 40927U 15051C   19311.73324238  .00011502  00000-0  16126-3 0  9999
2 40927  97.1222 356.9158 0006774 200.9712 255.1636 15.56890777232098
